JBU83 KJFK-KMCO

Flight info

Callsign JBU83
Flight time N/A
Altitude 36000
Route WAVEY EMJAY Q167 ZJAAY KALDA Q131 WAALT Y289 BAHAA HIBAC ALYNA4
Aircraft A320/M-SDE3FGHIRWY/LB1

Departure

Time 2026-05-09 03:56
Airport John F. Kennedy International Airport (KJFK)

Arrival

Time N/A
Airport Orlando International Airport (KMCO)
Time Latitude Longitude Altitude Speed Heading
2026-05-09 03:06 40.64618 -73.77305 16 ft 0 kts 191°
2026-05-09 03:40 40.64634 -73.77301 19 ft 3 kts 190°
2026-05-09 03:40 40.64654 -73.77297 17 ft 2 kts 190°
2026-05-09 03:40 40.64672 -73.77294 17 ft 3 kts 168°
2026-05-09 03:40 40.64689 -73.77304 18 ft 3 kts 129°
2026-05-09 03:41 40.64700 -73.77325 17 ft 3 kts 121°
2026-05-09 03:41 40.64711 -73.77349 17 ft 3 kts 121°
2026-05-09 03:41 40.64722 -73.77372 17 ft 3 kts 121°
2026-05-09 03:41 40.64732 -73.77396 18 ft 3 kts 121°
2026-05-09 03:42 40.64743 -73.77419 18 ft 3 kts 121°
2026-05-09 03:42 40.64754 -73.77443 17 ft 3 kts 121°
2026-05-09 03:42 40.64755 -73.77446 17 ft 0 kts 121°
2026-05-09 03:45 40.64754 -73.77443 17 ft 1 kts 121°
2026-05-09 03:45 40.64746 -73.77426 17 ft 3 kts 121°
2026-05-09 03:45 40.64745 -73.77383 17 ft 9 kts 63°
2026-05-09 03:45 40.64790 -73.77330 16 ft 8 kts 100°
2026-05-09 03:46 40.64758 -73.77258 16 ft 10 kts 122°
2026-05-09 03:46 40.64709 -73.77153 16 ft 17 kts 123°
2026-05-09 03:46 40.64606 -73.77090 16 ft 18 kts 180°
2026-05-09 03:46 40.64477 -73.77092 16 ft 19 kts 181°
2026-05-09 03:47 40.64357 -73.77162 16 ft 20 kts 210°
2026-05-09 03:47 40.64232 -73.77259 16 ft 21 kts 212°
2026-05-09 03:47 40.64149 -73.77324 16 ft 7 kts 212°
2026-05-09 03:47 40.64102 -73.77363 16 ft 9 kts 211°
2026-05-09 03:48 40.64070 -73.77387 16 ft 12 kts 209°
2026-05-09 03:48 40.63959 -73.77470 17 ft 17 kts 209°
2026-05-09 03:48 40.63851 -73.77552 16 ft 19 kts 213°
2026-05-09 03:48 40.63733 -73.77651 16 ft 21 kts 210°
2026-05-09 03:49 40.63602 -73.77752 16 ft 23 kts 211°
2026-05-09 03:49 40.63498 -73.77834 17 ft 15 kts 210°
2026-05-09 03:49 40.63407 -73.77907 16 ft 12 kts 213°
2026-05-09 03:49 40.63355 -73.77911 16 ft 8 kts 124°
2026-05-09 03:50 40.63297 -73.77785 20 ft 21 kts 121°
2026-05-09 03:50 40.63221 -73.77615 18 ft 24 kts 121°
2026-05-09 03:50 40.63136 -73.77415 16 ft 23 kts 130°
2026-05-09 03:50 40.63044 -73.77235 17 ft 25 kts 121°
2026-05-09 03:51 40.63007 -73.77136 16 ft 0 kts 120°
2026-05-09 03:52 40.62995 -73.77113 16 ft 7 kts 123°
2026-05-09 03:52 40.62957 -73.77078 16 ft 7 kts 187°
2026-05-09 03:52 40.62909 -73.77118 16 ft 9 kts 214°
2026-05-09 03:53 40.62892 -73.77132 17 ft 1 kts 211°
2026-05-09 03:53 40.62891 -73.77133 17 ft 0 kts 211°
2026-05-09 03:53 40.62859 -73.77158 16 ft 10 kts 211°
2026-05-09 03:54 40.62820 -73.77195 16 ft 8 kts 235°
2026-05-09 03:54 40.62833 -73.77250 18 ft 0 kts 300°
2026-05-09 03:55 40.62840 -73.77266 17 ft 17 kts 300°
2026-05-09 03:55 40.63023 -73.77669 17 ft 83 kts 301°
2026-05-09 03:55 40.63411 -73.78528 20 ft 133 kts 301°
2026-05-09 03:56 40.63959 -73.79736 35 ft 172 kts 301°
2026-05-09 03:56 40.64537 -73.81052 642 ft 164 kts 292°
2026-05-09 03:56 40.64732 -73.82507 1167 ft 163 kts 261°
2026-05-09 03:56 40.64319 -73.83929 1441 ft 180 kts 231°
2026-05-09 03:57 40.63312 -73.85035 1771 ft 196 kts 215°
2026-05-09 03:57 40.62180 -73.86139 2073 ft 214 kts 219°
2026-05-09 03:57 40.61055 -73.87321 3025 ft 200 kts 221°
2026-05-09 03:57 40.59813 -73.88245 3675 ft 213 kts 199°
2026-05-09 03:58 40.58281 -73.88296 4213 ft 237 kts 170°
2026-05-09 03:58 40.56650 -73.87443 4571 ft 265 kts 161°
2026-05-09 03:58 40.54928 -73.86399 5133 ft 277 kts 163°
2026-05-09 03:58 40.53094 -73.85637 5878 ft 276 kts 177°
2026-05-09 03:59 40.51191 -73.85293 6673 ft 278 kts 179°
2026-05-09 03:59 40.49294 -73.84553 7429 ft 293 kts 162°
2026-05-09 03:59 40.47567 -73.83098 8163 ft 307 kts 144°
2026-05-09 03:59 40.46150 -73.80928 8887 ft 318 kts 129°
2026-05-09 04:00 40.44869 -73.78540 9631 ft 322 kts 129°
2026-05-09 04:00 40.43561 -73.76120 10232 ft 331 kts 130°
2026-05-09 04:00 40.42169 -73.73571 10388 ft 355 kts 129°
2026-05-09 04:00 40.40683 -73.70863 10513 ft 377 kts 129°
2026-05-09 04:01 40.39112 -73.68002 10756 ft 393 kts 129°
2026-05-09 04:01 40.37531 -73.65109 11318 ft 399 kts 128°
2026-05-09 04:01 40.35906 -73.62133 11901 ft 403 kts 128°
2026-05-09 04:01 40.34268 -73.59132 12502 ft 407 kts 128°
2026-05-09 04:02 40.32610 -73.56097 13104 ft 411 kts 128°
2026-05-09 04:02 40.30935 -73.53034 13711 ft 416 kts 128°
2026-05-09 04:02 40.29241 -73.49942 14249 ft 420 kts 128°
2026-05-09 04:02 40.27529 -73.46827 14768 ft 423 kts 128°
2026-05-09 04:03 40.25800 -73.43686 15305 ft 427 kts 128°
2026-05-09 04:03 40.23975 -73.40614 15819 ft 427 kts 136°
2026-05-09 04:03 40.21858 -73.37975 16342 ft 426 kts 146°
2026-05-09 04:03 40.19472 -73.35693 16895 ft 426 kts 150°
2026-05-09 04:04 40.17040 -73.33451 17461 ft 428 kts 152°
2026-05-09 04:04 40.14421 -73.31685 18029 ft 420 kts 166°
2026-05-09 04:04 40.11622 -73.30769 18574 ft 411 kts 181°
2026-05-09 04:04 40.08803 -73.30706 19099 ft 401 kts 194°
2026-05-09 04:05 40.06109 -73.31432 19602 ft 391 kts 206°
2026-05-09 04:05 40.03659 -73.32862 20137 ft 382 kts 218°
2026-05-09 04:05 40.01558 -73.34845 20645 ft 375 kts 227°
2026-05-09 04:05 39.99581 -73.37077 21142 ft 377 kts 227°
2026-05-09 04:06 39.97590 -73.39316 21624 ft 379 kts 227°
2026-05-09 04:06 39.95584 -73.41557 22075 ft 381 kts 227°
2026-05-09 04:06 39.93566 -73.43801 22520 ft 383 kts 227°
2026-05-09 04:06 39.91538 -73.46055 22957 ft 384 kts 227°
2026-05-09 04:07 39.89501 -73.48324 23369 ft 386 kts 228°
2026-05-09 04:07 39.87453 -73.50604 23751 ft 388 kts 228°
2026-05-09 04:07 39.85393 -73.52895 24089 ft 390 kts 228°
2026-05-09 04:07 39.83354 -73.55161 24419 ft 392 kts 228°
2026-05-09 04:08 39.81282 -73.57470 24752 ft 393 kts 228°
2026-05-09 04:08 39.79201 -73.59791 25082 ft 395 kts 228°
2026-05-09 04:08 39.77113 -73.62118 25400 ft 396 kts 228°
2026-05-09 04:08 39.75015 -73.64452 25736 ft 398 kts 228°
2026-05-09 04:09 39.72906 -73.66793 26061 ft 399 kts 228°
2026-05-09 04:09 39.70788 -73.69141 26386 ft 401 kts 228°
2026-05-09 04:09 39.68664 -73.71497 26699 ft 403 kts 228°
2026-05-09 04:09 39.66558 -73.73829 27053 ft 403 kts 228°
2026-05-09 04:10 39.64429 -73.76181 27533 ft 401 kts 228°
2026-05-09 04:10 39.62311 -73.78517 27994 ft 399 kts 228°
2026-05-09 04:10 39.60199 -73.80842 28470 ft 397 kts 229°
2026-05-09 04:10 39.58097 -73.83156 28952 ft 395 kts 229°
2026-05-09 04:11 39.56009 -73.85459 29436 ft 393 kts 229°
2026-05-09 04:11 39.53933 -73.87751 29923 ft 392 kts 229°
2026-05-09 04:11 39.51864 -73.90035 30362 ft 390 kts 229°
2026-05-09 04:11 39.49806 -73.92303 30791 ft 387 kts 230°
2026-05-09 04:12 39.47760 -73.94553 31232 ft 385 kts 230°
2026-05-09 04:12 39.45753 -73.96756 31668 ft 382 kts 230°
2026-05-09 04:12 39.43733 -73.98970 32124 ft 380 kts 230°
2026-05-09 04:12 39.41724 -74.01169 32581 ft 377 kts 231°
2026-05-09 04:13 39.39732 -74.03348 33034 ft 374 kts 231°
2026-05-09 04:13 39.37755 -74.05513 33493 ft 371 kts 231°
2026-05-09 04:13 39.35792 -74.07665 33950 ft 369 kts 232°
2026-05-09 04:13 39.33842 -74.09798 34329 ft 366 kts 232°
2026-05-09 04:14 39.31897 -74.11916 34657 ft 365 kts 232°
2026-05-09 04:14 39.29987 -74.13994 34965 ft 363 kts 232°
2026-05-09 04:14 39.28058 -74.16092 35255 ft 362 kts 232°
2026-05-09 04:14 39.26133 -74.18187 35542 ft 361 kts 232°
2026-05-09 04:15 39.24215 -74.20273 35826 ft 360 kts 232°
2026-05-09 04:15 39.22298 -74.22355 35993 ft 360 kts 232°
2026-05-09 04:15 39.18425 -74.26575 36035 ft 369 kts 232°
2026-05-09 04:16 39.14504 -74.30849 36036 ft 373 kts 232°
2026-05-09 04:16 39.10534 -74.35148 36035 ft 373 kts 231°
2026-05-09 04:17 39.06561 -74.39440 36042 ft 373 kts 231°
2026-05-09 04:17 39.02581 -74.43720 36049 ft 373 kts 231°
2026-05-09 04:18 38.98602 -74.48001 36045 ft 373 kts 231°
2026-05-09 04:18 38.94652 -74.52255 36043 ft 373 kts 231°
2026-05-09 04:19 38.90767 -74.56622 36044 ft 370 kts 233°
2026-05-09 04:19 38.87004 -74.61102 36045 ft 369 kts 234°
2026-05-09 04:20 38.83243 -74.65574 36047 ft 369 kts 234°
2026-05-09 04:20 38.79487 -74.69978 36047 ft 368 kts 233°
2026-05-09 04:21 38.75688 -74.74386 36047 ft 368 kts 233°
2026-05-09 04:22 38.69787 -74.80757 36050 ft 371 kts 231°
2026-05-09 04:22 38.65751 -74.84873 36049 ft 371 kts 231°
2026-05-09 04:23 38.61762 -74.88962 36051 ft 369 kts 231°
2026-05-09 04:23 38.57777 -74.93099 36055 ft 368 kts 231°
2026-05-09 04:24 38.53807 -74.97231 36057 ft 368 kts 231°
2026-05-09 04:24 38.49897 -75.01421 36064 ft 365 kts 233°
2026-05-09 04:25 38.46083 -75.05691 36064 ft 366 kts 232°
2026-05-09 04:25 38.42061 -75.09696 36062 ft 371 kts 229°
2026-05-09 04:26 38.37880 -75.13572 36060 ft 372 kts 229°
2026-05-09 04:26 38.33699 -75.17449 36059 ft 371 kts 229°
2026-05-09 04:27 38.29554 -75.21352 36056 ft 370 kts 229°
2026-05-09 04:27 38.25456 -75.25246 36055 ft 370 kts 229°
2026-05-09 04:28 38.21331 -75.29153 36055 ft 370 kts 229°
2026-05-09 04:28 38.17204 -75.33060 36056 ft 370 kts 229°
2026-05-09 04:29 38.13102 -75.36928 36062 ft 370 kts 229°
2026-05-09 04:29 38.08967 -75.40816 36067 ft 370 kts 229°
2026-05-09 04:30 38.04836 -75.44698 36069 ft 370 kts 229°
2026-05-09 04:30 38.00607 -75.48462 36068 ft 373 kts 227°
2026-05-09 04:31 37.96309 -75.52150 36064 ft 373 kts 227°
2026-05-09 04:31 37.92049 -75.55812 36064 ft 372 kts 227°
2026-05-09 04:32 37.87783 -75.59519 36060 ft 372 kts 227°
2026-05-09 04:32 37.83414 -75.63094 36067 ft 384 kts 220°
2026-05-09 04:33 37.78498 -75.65915 36053 ft 388 kts 219°
2026-05-09 04:33 37.73625 -75.68687 36067 ft 386 kts 219°
2026-05-09 04:34 37.68741 -75.71452 36075 ft 384 kts 219°
2026-05-09 04:34 37.63880 -75.74208 36075 ft 382 kts 219°
2026-05-09 04:35 37.59047 -75.76955 36071 ft 381 kts 220°
2026-05-09 04:35 37.54250 -75.79667 36075 ft 380 kts 220°
2026-05-09 04:36 37.49431 -75.82382 36074 ft 379 kts 220°
2026-05-09 04:36 37.44616 -75.85097 36074 ft 379 kts 220°
2026-05-09 04:37 37.39811 -75.87811 36068 ft 379 kts 220°
2026-05-09 04:37 37.35032 -75.90501 36071 ft 378 kts 220°
2026-05-09 04:38 37.30228 -75.93197 36072 ft 378 kts 220°
2026-05-09 04:38 37.25426 -75.95890 36080 ft 378 kts 220°
2026-05-09 04:39 37.20623 -75.98580 36075 ft 378 kts 220°
2026-05-09 04:39 37.15824 -76.01269 36070 ft 378 kts 220°
2026-05-09 04:40 37.11077 -76.03964 36073 ft 374 kts 221°
2026-05-09 04:40 37.06522 -76.07002 36073 ft 368 kts 224°
2026-05-09 04:41 37.02086 -76.10187 36081 ft 368 kts 225°
2026-05-09 04:41 36.97632 -76.13346 36066 ft 369 kts 224°
2026-05-09 04:42 36.93165 -76.16436 36069 ft 370 kts 224°
2026-05-09 04:42 36.88649 -76.19521 36066 ft 370 kts 224°
2026-05-09 04:43 36.84146 -76.22603 36065 ft 369 kts 224°
2026-05-09 04:43 36.79642 -76.25693 36064 ft 369 kts 224°
2026-05-09 04:44 36.75144 -76.28785 36074 ft 370 kts 224°
2026-05-09 04:44 36.70664 -76.31852 36074 ft 370 kts 224°
2026-05-09 04:45 36.66148 -76.34933 36076 ft 370 kts 224°
2026-05-09 04:45 36.61630 -76.38014 36082 ft 370 kts 224°
2026-05-09 04:46 36.57113 -76.41093 36076 ft 370 kts 224°
2026-05-09 04:46 36.52624 -76.44152 36084 ft 370 kts 224°
2026-05-09 04:47 36.48097 -76.47220 36079 ft 371 kts 224°
2026-05-09 04:47 36.43572 -76.50288 36076 ft 370 kts 224°
2026-05-09 04:48 36.39054 -76.53354 36072 ft 370 kts 224°
2026-05-09 04:48 36.34560 -76.56398 36073 ft 371 kts 224°
2026-05-09 04:49 36.30030 -76.59460 36078 ft 371 kts 224°
2026-05-09 04:49 36.25494 -76.62518 36083 ft 371 kts 224°
2026-05-09 04:50 36.20958 -76.65578 36085 ft 372 kts 224°
2026-05-09 04:50 36.16441 -76.68614 36090 ft 372 kts 224°
2026-05-09 04:51 36.11893 -76.71676 36091 ft 372 kts 224°
2026-05-09 04:51 36.07342 -76.74733 36087 ft 372 kts 224°
2026-05-09 04:52 36.02790 -76.77781 36084 ft 373 kts 224°
2026-05-09 04:52 35.98224 -76.80839 36078 ft 373 kts 224°
2026-05-09 04:53 35.93690 -76.83881 36075 ft 374 kts 224°
2026-05-09 04:53 35.89086 -76.86920 36067 ft 377 kts 222°
2026-05-09 04:54 35.84373 -76.89827 36068 ft 380 kts 221°
2026-05-09 04:54 35.79656 -76.92676 36081 ft 380 kts 221°
2026-05-09 04:55 35.74917 -76.95567 36091 ft 380 kts 221°
2026-05-09 04:55 35.70184 -76.98478 36084 ft 380 kts 221°
2026-05-09 04:56 35.65449 -77.01395 36083 ft 381 kts 221°
2026-05-09 04:56 35.60699 -77.04309 36087 ft 382 kts 221°
2026-05-09 04:57 35.55975 -77.07204 36087 ft 382 kts 221°
2026-05-09 04:57 35.51213 -77.10118 36083 ft 383 kts 221°
2026-05-09 04:58 35.46439 -77.13031 36078 ft 384 kts 221°
2026-05-09 04:58 35.41658 -77.15946 36068 ft 384 kts 221°
2026-05-09 04:59 35.36891 -77.18846 36065 ft 386 kts 221°
2026-05-09 04:59 35.32077 -77.21767 36058 ft 387 kts 220°
2026-05-09 05:00 35.27251 -77.24693 36063 ft 388 kts 220°
2026-05-09 05:00 35.22411 -77.27627 36062 ft 389 kts 220°
2026-05-09 05:01 35.17597 -77.30557 36068 ft 390 kts 220°
2026-05-09 05:01 35.12738 -77.33506 36064 ft 391 kts 220°
2026-05-09 05:02 35.07852 -77.36450 36057 ft 392 kts 220°
2026-05-09 05:02 35.02955 -77.39394 36063 ft 393 kts 220°
2026-05-09 05:03 34.98090 -77.42326 36064 ft 393 kts 220°
2026-05-09 05:03 34.93172 -77.45277 36061 ft 394 kts 220°
2026-05-09 05:04 34.88248 -77.48237 36066 ft 395 kts 220°
2026-05-09 05:04 34.83315 -77.51202 36211 ft 396 kts 219°
2026-05-09 05:04 34.80842 -77.52686 36059 ft 397 kts 219°
2026-05-09 05:05 34.78399 -77.54153 36060 ft 397 kts 219°
2026-05-09 05:05 34.73429 -77.57125 36073 ft 399 kts 219°
2026-05-09 05:06 34.68450 -77.60096 36058 ft 399 kts 219°
2026-05-09 05:06 34.63462 -77.63072 36068 ft 400 kts 219°
2026-05-09 05:07 34.58503 -77.66024 36067 ft 400 kts 219°
2026-05-09 05:07 34.55920 -77.67366 36074 ft 412 kts 211°
2026-05-09 05:07 34.53095 -77.68234 36077 ft 423 kts 205°
2026-05-09 05:08 34.47334 -77.69690 36081 ft 423 kts 205°
2026-05-09 05:08 34.41573 -77.71152 36081 ft 423 kts 205°
2026-05-09 05:09 34.35855 -77.72604 36080 ft 422 kts 205°
2026-05-09 05:09 34.30109 -77.74066 36079 ft 422 kts 205°
2026-05-09 05:10 34.24364 -77.75524 36077 ft 422 kts 205°
2026-05-09 05:10 34.18617 -77.76978 36079 ft 422 kts 205°
2026-05-09 05:11 34.12875 -77.78432 36075 ft 422 kts 205°
2026-05-09 05:11 34.07167 -77.79879 36075 ft 422 kts 205°
2026-05-09 05:12 34.01420 -77.81331 36074 ft 422 kts 205°
2026-05-09 05:12 33.95673 -77.82775 36072 ft 422 kts 205°
2026-05-09 05:13 33.89927 -77.84216 36070 ft 422 kts 205°
2026-05-09 05:13 33.84223 -77.85652 36071 ft 422 kts 205°
2026-05-09 05:14 33.78483 -77.87114 36070 ft 420 kts 206°
2026-05-09 05:14 33.72878 -77.88896 36071 ft 414 kts 209°
2026-05-09 05:15 33.67361 -77.90884 36060 ft 414 kts 210°
2026-05-09 05:15 33.61864 -77.92829 36061 ft 415 kts 209°
2026-05-09 05:16 33.56297 -77.94714 36056 ft 416 kts 208°
2026-05-09 05:16 33.50722 -77.96579 36053 ft 416 kts 208°
2026-05-09 05:17 33.45156 -77.98452 36050 ft 416 kts 208°
2026-05-09 05:17 33.39583 -78.00336 36048 ft 416 kts 208°
2026-05-09 05:18 33.34045 -78.02211 36052 ft 416 kts 208°
2026-05-09 05:18 33.28466 -78.04093 36057 ft 417 kts 208°
2026-05-09 05:19 33.22881 -78.05967 36055 ft 417 kts 208°
2026-05-09 05:19 33.17294 -78.07836 36056 ft 417 kts 208°
2026-05-09 05:20 33.11744 -78.09695 36056 ft 417 kts 208°
2026-05-09 05:20 33.06164 -78.11562 36054 ft 417 kts 208°
2026-05-09 05:21 33.00575 -78.13429 36050 ft 417 kts 208°
2026-05-09 05:21 32.94987 -78.15301 36045 ft 417 kts 208°
2026-05-09 05:22 32.89428 -78.17157 36042 ft 418 kts 208°
2026-05-09 05:22 32.83828 -78.19017 36037 ft 418 kts 208°
2026-05-09 05:23 32.78231 -78.20877 36031 ft 418 kts 208°
2026-05-09 05:23 32.72624 -78.22735 36034 ft 418 kts 208°
2026-05-09 05:24 32.67058 -78.24583 36030 ft 418 kts 208°
2026-05-09 05:24 32.61449 -78.26442 36030 ft 419 kts 208°
2026-05-09 05:25 32.55833 -78.28305 36022 ft 419 kts 208°
2026-05-09 05:25 32.47398 -78.31091 36027 ft 420 kts 208°
2026-05-09 05:26 32.41805 -78.32931 36027 ft 420 kts 208°
2026-05-09 05:26 32.36165 -78.34784 36030 ft 421 kts 208°
2026-05-09 05:27 32.30525 -78.36640 36026 ft 421 kts 208°
2026-05-09 05:27 32.24882 -78.38502 36027 ft 421 kts 208°
2026-05-09 05:28 32.19266 -78.40348 36023 ft 422 kts 208°
2026-05-09 05:28 32.13609 -78.42195 36028 ft 422 kts 207°
2026-05-09 05:29 32.07937 -78.44037 36025 ft 423 kts 207°
2026-05-09 05:29 32.02272 -78.45898 36031 ft 423 kts 207°
2026-05-09 05:30 31.96637 -78.47741 36032 ft 423 kts 207°
2026-05-09 05:30 31.90956 -78.49584 36035 ft 424 kts 207°
2026-05-09 05:31 31.85274 -78.51437 36040 ft 424 kts 207°
2026-05-09 05:31 31.79594 -78.53288 36046 ft 424 kts 207°
2026-05-09 05:32 31.73900 -78.55139 36044 ft 424 kts 207°
2026-05-09 05:32 31.68252 -78.56964 36049 ft 424 kts 207°
2026-05-09 05:33 31.62559 -78.58806 36044 ft 424 kts 207°
2026-05-09 05:33 31.56862 -78.60650 36046 ft 425 kts 207°
2026-05-09 05:34 31.51170 -78.62519 36041 ft 424 kts 207°
2026-05-09 05:34 31.45547 -78.64459 36041 ft 424 kts 208°
2026-05-09 05:35 31.39890 -78.66424 36036 ft 424 kts 207°
2026-05-09 05:35 31.34229 -78.68374 36041 ft 425 kts 207°
2026-05-09 05:36 31.28553 -78.70312 36042 ft 425 kts 207°
2026-05-09 05:36 31.22907 -78.72225 36046 ft 426 kts 207°
2026-05-09 05:37 31.17218 -78.74156 36044 ft 426 kts 207°
2026-05-09 05:37 31.11530 -78.76097 36046 ft 426 kts 207°
2026-05-09 05:38 31.05872 -78.78022 36045 ft 427 kts 207°
2026-05-09 05:38 31.00177 -78.79951 36049 ft 427 kts 207°
2026-05-09 05:39 30.94476 -78.81883 36046 ft 426 kts 207°
2026-05-09 05:39 30.88780 -78.83825 36046 ft 426 kts 207°
2026-05-09 05:40 30.83118 -78.85748 36047 ft 427 kts 207°
2026-05-09 05:40 30.77408 -78.87670 36044 ft 427 kts 207°
2026-05-09 05:41 30.71693 -78.89588 36044 ft 428 kts 207°
2026-05-09 05:41 30.65979 -78.91518 36044 ft 428 kts 207°
2026-05-09 05:42 30.60263 -78.93436 36040 ft 428 kts 206°
2026-05-09 05:42 30.54590 -78.95335 36045 ft 427 kts 206°
2026-05-09 05:43 30.48873 -78.97251 36097 ft 427 kts 206°
2026-05-09 05:43 30.43180 -78.99163 36043 ft 425 kts 207°
2026-05-09 05:44 30.37607 -79.01311 36038 ft 419 kts 211°
2026-05-09 05:44 30.32220 -79.03754 36034 ft 418 kts 212°
2026-05-09 05:45 30.26799 -79.06232 36033 ft 420 kts 211°
2026-05-09 05:45 30.21342 -79.08644 36030 ft 421 kts 211°
2026-05-09 05:46 30.15854 -79.11019 36027 ft 421 kts 211°
2026-05-09 05:46 30.10397 -79.13380 36022 ft 422 kts 211°
2026-05-09 05:47 30.04899 -79.15770 36019 ft 423 kts 210°
2026-05-09 05:47 29.99391 -79.18163 36015 ft 423 kts 210°
2026-05-09 05:48 29.93868 -79.20550 36013 ft 424 kts 210°
2026-05-09 05:48 29.88371 -79.22924 36011 ft 425 kts 210°
2026-05-09 05:49 29.82829 -79.25317 36008 ft 426 kts 210°
2026-05-09 05:49 29.77284 -79.27723 36010 ft 426 kts 210°
2026-05-09 05:50 29.71731 -79.30118 36006 ft 427 kts 210°
2026-05-09 05:50 29.66154 -79.32502 36007 ft 428 kts 210°
2026-05-09 05:51 29.60613 -79.34887 36008 ft 428 kts 210°
2026-05-09 05:51 29.55029 -79.37298 36014 ft 429 kts 210°
2026-05-09 05:52 29.49436 -79.39704 36018 ft 429 kts 210°
2026-05-09 05:52 29.43838 -79.42105 36021 ft 430 kts 210°
2026-05-09 05:53 29.38271 -79.44484 36028 ft 430 kts 210°
2026-05-09 05:53 29.32670 -79.46871 36019 ft 430 kts 210°
2026-05-09 05:54 29.27063 -79.49268 36027 ft 430 kts 210°
2026-05-09 05:54 29.21449 -79.51664 36024 ft 431 kts 210°
2026-05-09 05:55 29.15830 -79.54059 36021 ft 431 kts 210°
2026-05-09 05:55 29.10246 -79.56444 36024 ft 431 kts 210°
2026-05-09 05:56 29.04658 -79.58843 36015 ft 426 kts 210°
2026-05-09 05:56 28.99117 -79.61235 36010 ft 425 kts 210°
2026-05-09 05:57 28.93581 -79.63632 36005 ft 425 kts 210°
2026-05-09 05:57 28.88054 -79.66035 35997 ft 426 kts 210°
2026-05-09 05:58 28.82560 -79.68434 35993 ft 426 kts 210°
2026-05-09 05:58 28.77026 -79.70858 35990 ft 426 kts 210°
2026-05-09 05:59 28.71492 -79.73291 35980 ft 426 kts 210°
2026-05-09 05:59 28.65958 -79.75734 35971 ft 427 kts 210°
2026-05-09 06:00 28.60464 -79.78165 35967 ft 427 kts 210°
2026-05-09 06:00 28.54928 -79.80624 35965 ft 427 kts 210°
2026-05-09 06:01 28.49390 -79.83089 35956 ft 427 kts 210°
2026-05-09 06:01 28.43853 -79.85562 35953 ft 428 kts 210°
2026-05-09 06:02 28.38350 -79.88026 35946 ft 428 kts 210°
2026-05-09 06:02 28.32809 -79.90514 35940 ft 428 kts 210°
2026-05-09 06:03 28.28207 -79.92585 35935 ft 429 kts 210°
2026-05-09 06:03 28.22662 -79.95087 35929 ft 429 kts 210°
2026-05-09 06:04 28.17117 -79.97598 35924 ft 429 kts 210°
2026-05-09 06:04 28.10671 -80.00524 35912 ft 430 kts 210°
2026-05-09 06:05 28.06055 -80.02624 35906 ft 430 kts 210°
2026-05-09 06:05 28.00507 -80.05157 35906 ft 430 kts 210°
2026-05-09 06:06 27.94053 -80.08125 35900 ft 431 kts 210°
2026-05-09 06:06 27.89404 -80.10275 35896 ft 431 kts 210°
2026-05-09 06:07 27.83887 -80.12838 35893 ft 431 kts 210°
2026-05-09 06:07 27.78335 -80.15429 35894 ft 432 kts 210°
2026-05-09 06:08 27.72788 -80.18032 35888 ft 432 kts 210°
2026-05-09 06:08 27.67234 -80.20648 35891 ft 432 kts 210°
2026-05-09 06:09 27.61722 -80.23258 35889 ft 433 kts 210°
2026-05-09 06:09 27.56182 -80.25892 35889 ft 433 kts 210°
2026-05-09 06:10 27.50634 -80.28541 35891 ft 433 kts 210°
2026-05-09 06:10 27.45092 -80.31199 35886 ft 433 kts 210°
2026-05-09 06:11 27.39553 -80.33864 35883 ft 433 kts 210°
2026-05-09 06:11 27.34050 -80.36525 35875 ft 433 kts 210°
2026-05-09 06:12 27.28520 -80.39213 35864 ft 433 kts 210°
2026-05-09 06:12 27.22991 -80.41914 35860 ft 433 kts 211°
2026-05-09 06:13 27.17467 -80.44624 35857 ft 433 kts 211°
2026-05-09 06:13 27.11946 -80.47345 35852 ft 433 kts 211°
2026-05-09 06:14 27.06462 -80.50058 35849 ft 434 kts 211°
2026-05-09 06:14 27.00947 -80.52796 35846 ft 434 kts 211°
2026-05-09 06:15 26.95436 -80.55541 35840 ft 433 kts 211°
2026-05-09 06:15 26.89924 -80.58296 35839 ft 434 kts 211°
2026-05-09 06:16 26.84452 -80.61040 35833 ft 434 kts 211°
2026-05-09 06:16 26.78945 -80.63812 35830 ft 434 kts 211°
2026-05-09 06:17 26.73447 -80.66587 35827 ft 434 kts 211°
2026-05-09 06:17 26.67938 -80.69378 35826 ft 434 kts 211°
2026-05-09 06:18 26.62472 -80.72156 35823 ft 434 kts 211°
2026-05-09 06:18 26.56971 -80.74959 35821 ft 435 kts 211°
2026-05-09 06:19 26.51475 -80.77767 35816 ft 435 kts 211°
2026-05-09 06:19 26.45973 -80.80586 35816 ft 435 kts 211°
2026-05-09 06:20 26.40475 -80.83411 35811 ft 435 kts 211°
2026-05-09 06:20 26.35015 -80.86227 35811 ft 435 kts 211°
2026-05-09 06:21 26.29526 -80.89066 35810 ft 435 kts 211°
2026-05-09 06:21 26.24040 -80.91912 35806 ft 435 kts 211°
2026-05-09 06:22 26.18549 -80.94768 35804 ft 435 kts 211°
2026-05-09 06:22 26.13097 -80.97613 35800 ft 436 kts 211°
2026-05-09 06:23 26.07607 -81.00485 35795 ft 436 kts 211°
2026-05-09 06:23 26.02119 -81.03371 35794 ft 436 kts 211°
2026-05-09 06:24 25.96641 -81.06267 35789 ft 437 kts 211°
2026-05-09 06:24 25.91155 -81.09181 35786 ft 437 kts 211°
2026-05-09 06:25 25.85707 -81.12090 35779 ft 437 kts 211°
2026-05-09 06:25 25.80222 -81.15032 35774 ft 438 kts 211°
2026-05-09 06:26 25.74736 -81.17986 35770 ft 438 kts 211°
2026-05-09 06:26 25.69255 -81.20952 35770 ft 439 kts 211°
2026-05-09 06:27 25.63811 -81.23912 35764 ft 439 kts 211°
2026-05-09 06:27 25.58332 -81.26903 35761 ft 439 kts 211°
2026-05-09 06:28 25.52860 -81.29902 35758 ft 439 kts 211°
2026-05-09 06:28 25.47385 -81.32915 35753 ft 440 kts 211°
2026-05-09 06:29 25.41944 -81.35919 35749 ft 440 kts 211°
2026-05-09 06:29 25.36470 -81.38950 35747 ft 440 kts 211°
2026-05-09 06:30 25.31000 -81.41987 35743 ft 440 kts 211°
2026-05-09 06:30 25.25537 -81.45027 35742 ft 440 kts 211°
2026-05-09 06:31 25.20070 -81.48077 35742 ft 440 kts 211°
2026-05-09 06:31 25.14638 -81.51113 35740 ft 440 kts 211°
2026-05-09 06:32 25.09175 -81.54170 35733 ft 440 kts 211°
2026-05-09 06:33 25.00984 -81.58765 35726 ft 440 kts 211°
2026-05-09 06:33 24.95561 -81.61814 35729 ft 440 kts 211°
2026-05-09 06:34 24.87377 -81.66426 35729 ft 440 kts 211°
2026-05-09 06:34 24.81929 -81.69503 35734 ft 440 kts 211°
2026-05-09 06:35 24.76514 -81.72565 35737 ft 441 kts 211°
2026-05-09 06:35 24.71066 -81.75656 35736 ft 440 kts 212°
2026-05-09 06:36 24.65630 -81.78752 35737 ft 440 kts 212°
2026-05-09 06:36 24.60196 -81.81859 35735 ft 440 kts 212°
2026-05-09 06:37 24.54766 -81.84975 35733 ft 440 kts 212°
2026-05-09 06:37 24.49376 -81.88079 35730 ft 440 kts 212°
2026-05-09 06:38 24.43954 -81.91212 35724 ft 441 kts 212°
2026-05-09 06:38 24.38533 -81.94355 35718 ft 441 kts 212°
2026-05-09 06:39 24.33123 -81.97502 35706 ft 441 kts 212°
2026-05-09 06:39 24.27746 -82.00637 35698 ft 441 kts 212°
2026-05-09 06:40 24.22336 -82.03802 35695 ft 441 kts 212°
2026-05-09 06:40 24.16931 -82.06975 35693 ft 441 kts 212°
2026-05-09 06:41 24.11528 -82.10157 35692 ft 441 kts 212°
2026-05-09 06:41 24.06172 -82.13319 35685 ft 441 kts 212°
2026-05-09 06:42 24.00775 -82.16513 35682 ft 441 kts 212°
2026-05-09 06:42 23.95380 -82.19714 35680 ft 441 kts 212°
2026-05-09 06:43 23.89989 -82.22920 35680 ft 441 kts 212°
2026-05-09 06:43 23.84635 -82.26112 35676 ft 441 kts 212°
2026-05-09 06:44 23.79246 -82.29332 35673 ft 442 kts 212°
2026-05-09 06:44 23.73857 -82.32558 35671 ft 442 kts 212°
2026-05-09 06:45 23.68467 -82.35794 35669 ft 442 kts 212°
2026-05-09 06:45 23.63081 -82.39037 35667 ft 442 kts 212°
2026-05-09 06:46 23.57739 -82.42263 35663 ft 442 kts 212°
2026-05-09 06:46 23.52357 -82.45522 35659 ft 442 kts 212°
2026-05-09 06:47 23.46974 -82.48789 35658 ft 443 kts 212°
2026-05-09 06:47 23.41598 -82.52060 35654 ft 443 kts 212°
2026-05-09 06:48 23.36257 -82.55319 35652 ft 443 kts 212°
2026-05-09 06:48 23.30886 -82.58610 35655 ft 444 kts 212°
2026-05-09 06:49 23.25511 -82.61917 35658 ft 444 kts 212°
2026-05-09 06:49 23.20137 -82.65237 35660 ft 445 kts 212°
2026-05-09 06:50 23.14797 -82.68548 35660 ft 445 kts 212°
2026-05-09 06:50 23.09423 -82.71894 35655 ft 445 kts 212°
2026-05-09 06:51 23.04049 -82.75252 35652 ft 446 kts 212°
2026-05-09 06:51 22.98677 -82.78618 35646 ft 446 kts 212°
2026-05-09 06:52 22.93307 -82.81991 35642 ft 446 kts 212°
2026-05-09 06:52 22.87966 -82.85353 35641 ft 447 kts 212°
2026-05-09 06:53 22.82596 -82.88744 35640 ft 447 kts 212°
2026-05-09 06:53 22.77231 -82.92141 35637 ft 447 kts 212°
2026-05-09 06:54 22.71899 -82.95526 35636 ft 447 kts 212°
2026-05-09 06:54 22.66535 -82.98939 35638 ft 447 kts 212°
2026-05-09 06:55 22.61171 -83.02356 35639 ft 447 kts 213°
2026-05-09 06:55 22.55805 -83.05780 35638 ft 447 kts 213°
2026-05-09 06:56 22.50443 -83.09208 35635 ft 448 kts 213°
2026-05-09 06:56 22.45120 -83.12615 35628 ft 448 kts 213°
2026-05-09 06:57 22.39755 -83.16056 35630 ft 448 kts 213°
2026-05-09 06:57 22.34390 -83.19502 35625 ft 449 kts 213°
2026-05-09 06:58 22.29028 -83.22948 35623 ft 449 kts 213°
2026-05-09 06:58 22.23700 -83.26376 35621 ft 449 kts 213°
2026-05-09 06:59 22.18332 -83.29836 35618 ft 449 kts 213°
2026-05-09 06:59 22.12971 -83.33297 35616 ft 449 kts 213°
2026-05-09 07:00 22.07611 -83.36762 35612 ft 449 kts 213°
2026-05-09 07:00 22.02255 -83.40227 35611 ft 449 kts 213°
2026-05-09 07:01 21.96928 -83.43678 35609 ft 449 kts 213°
2026-05-09 07:01 21.91574 -83.47154 35608 ft 449 kts 213°
2026-05-09 07:02 21.86223 -83.50633 35605 ft 449 kts 213°
2026-05-09 07:02 21.80881 -83.54111 35601 ft 449 kts 213°
2026-05-09 07:03 21.75537 -83.57591 35600 ft 449 kts 213°
2026-05-09 07:03 21.70231 -83.61044 35600 ft 449 kts 213°
2026-05-09 07:04 21.64891 -83.64516 35601 ft 448 kts 213°
2026-05-09 07:04 21.59553 -83.67988 35590 ft 448 kts 213°
2026-05-09 07:05 21.54251 -83.71441 35588 ft 449 kts 213°
2026-05-09 07:05 21.48918 -83.74924 35593 ft 449 kts 213°
2026-05-09 07:06 21.43596 -83.78410 35589 ft 449 kts 213°
2026-05-09 07:06 21.38271 -83.81903 35589 ft 448 kts 213°
2026-05-09 07:07 21.32950 -83.85396 35588 ft 448 kts 213°
2026-05-09 07:07 21.27667 -83.88867 35584 ft 448 kts 213°
2026-05-09 07:08 21.22347 -83.92363 35583 ft 449 kts 213°
2026-05-09 07:08 21.17024 -83.95861 35583 ft 449 kts 213°
2026-05-09 07:09 21.11702 -83.99357 35581 ft 449 kts 213°
2026-05-09 07:09 21.06363 -84.02862 35579 ft 450 kts 213°
2026-05-09 07:10 21.01065 -84.06336 35577 ft 450 kts 213°
2026-05-09 07:10 20.95720 -84.09837 35577 ft 451 kts 213°
2026-05-09 07:11 20.90373 -84.13342 35575 ft 451 kts 213°
2026-05-09 07:11 20.85028 -84.16854 35572 ft 451 kts 213°
2026-05-09 07:12 20.79720 -84.20346 35572 ft 451 kts 213°
2026-05-09 07:12 20.74380 -84.23866 35567 ft 451 kts 213°
2026-05-09 07:13 20.69046 -84.27383 35569 ft 451 kts 213°
2026-05-09 07:13 20.63708 -84.30909 35569 ft 451 kts 213°
2026-05-09 07:14 20.58407 -84.34412 35568 ft 451 kts 214°
2026-05-09 07:14 20.53075 -84.37943 35566 ft 451 kts 213°
2026-05-09 07:15 20.47745 -84.41475 35566 ft 451 kts 214°
2026-05-09 07:15 20.42416 -84.45007 35563 ft 451 kts 213°
2026-05-09 07:16 20.37088 -84.48540 35564 ft 451 kts 213°
2026-05-09 07:16 20.31802 -84.52044 35560 ft 451 kts 214°
2026-05-09 07:17 20.26475 -84.55579 35558 ft 451 kts 214°
2026-05-09 07:17 20.21150 -84.59116 35556 ft 451 kts 214°
2026-05-09 07:18 20.15828 -84.62659 35557 ft 451 kts 214°
2026-05-09 07:18 20.10540 -84.66182 35555 ft 451 kts 213°
2026-05-09 07:19 20.05216 -84.69731 35556 ft 452 kts 214°
2026-05-09 07:19 19.99894 -84.73285 35550 ft 452 kts 214°
2026-05-09 07:20 19.94580 -84.76839 35550 ft 452 kts 214°
2026-05-09 07:20 19.89260 -84.80401 35546 ft 452 kts 214°
2026-05-09 07:21 19.83976 -84.83941 35547 ft 452 kts 214°
2026-05-09 07:21 19.78661 -84.87513 35545 ft 452 kts 214°
2026-05-09 07:22 19.73344 -84.91093 35542 ft 453 kts 214°
2026-05-09 07:22 19.68023 -84.94678 35544 ft 453 kts 214°
2026-05-09 07:23 19.62738 -84.98255 35541 ft 454 kts 214°
2026-05-09 07:23 19.57413 -85.01865 35540 ft 454 kts 214°
2026-05-09 07:24 19.52095 -85.05478 35541 ft 455 kts 214°
2026-05-09 07:24 19.46769 -85.09098 35536 ft 455 kts 214°
2026-05-09 07:25 19.41484 -85.12703 35537 ft 455 kts 214°
2026-05-09 07:25 19.36167 -85.16335 35535 ft 455 kts 214°
2026-05-09 07:26 19.30849 -85.19973 35534 ft 455 kts 214°
2026-05-09 07:26 19.25531 -85.23612 35530 ft 455 kts 214°
2026-05-09 07:27 19.20211 -85.27258 35528 ft 456 kts 214°
2026-05-09 07:27 19.14929 -85.30879 35525 ft 456 kts 214°
2026-05-09 07:28 19.09601 -85.34532 35523 ft 456 kts 215°
2026-05-09 07:28 19.04274 -85.38191 35521 ft 457 kts 214°
2026-05-09 07:29 18.98951 -85.41860 35521 ft 457 kts 214°
2026-05-09 07:29 18.93664 -85.45509 35519 ft 457 kts 214°
2026-05-09 07:30 18.88343 -85.49188 35518 ft 457 kts 214°
2026-05-09 07:30 18.83021 -85.52874 35515 ft 458 kts 214°
2026-05-09 07:31 18.77698 -85.56565 35511 ft 458 kts 214°
2026-05-09 07:31 18.72413 -85.60231 35516 ft 458 kts 214°
2026-05-09 07:32 18.67091 -85.63933 35515 ft 458 kts 214°
2026-05-09 07:32 18.61770 -85.67643 35510 ft 459 kts 215°
2026-05-09 07:33 18.53787 -85.73222 35509 ft 459 kts 215°
2026-05-09 07:34 18.48497 -85.76918 35504 ft 459 kts 215°
2026-05-09 07:34 18.43170 -85.80645 35505 ft 460 kts 214°
2026-05-09 07:35 18.37848 -85.84375 35500 ft 460 kts 215°
2026-05-09 07:35 18.32519 -85.88113 35497 ft 460 kts 214°
2026-05-09 07:36 18.27194 -85.91862 35498 ft 461 kts 215°
2026-05-09 07:36 18.21905 -85.95593 35491 ft 461 kts 215°
2026-05-09 07:37 18.16578 -85.99354 35491 ft 461 kts 215°
2026-05-09 07:37 18.11249 -86.03120 35491 ft 461 kts 214°
2026-05-09 07:37 18.08626 -86.04960 35480 ft 445 kts 215°
2026-05-09 07:38 18.06077 -86.06744 35483 ft 436 kts 214°
2026-05-09 07:38 18.01138 -86.10200 35472 ft 424 kts 214°
2026-05-09 07:39 17.96293 -86.13578 35471 ft 409 kts 214°
2026-05-09 07:39 17.93968 -86.15204 35469 ft 394 kts 215°
2026-05-09 07:39 17.91705 -86.16785 35460 ft 388 kts 215°
2026-05-09 07:40 17.87250 -86.19882 35450 ft 380 kts 215°
2026-05-09 07:40 17.85047 -86.21413 35333 ft 379 kts 215°
2026-05-09 07:40 17.82880 -86.22925 35217 ft 379 kts 215°
2026-05-09 07:40 17.80689 -86.24455 35105 ft 377 kts 215°
2026-05-09 07:41 17.78547 -86.25969 34612 ft 367 kts 215°
2026-05-09 07:41 17.76425 -86.27432 34065 ft 364 kts 212°
2026-05-09 07:41 17.74190 -86.28645 33509 ft 361 kts 201°
2026-05-09 07:41 17.71787 -86.29288 32963 ft 356 kts 184°
2026-05-09 07:42 17.69353 -86.29027 32464 ft 350 kts 159°
2026-05-09 07:42 17.67347 -86.27695 31996 ft 340 kts 127°
2026-05-09 07:42 17.66376 -86.25534 31462 ft 328 kts 91°
2026-05-09 07:42 17.66843 -86.23278 30681 ft 321 kts 50°
2026-05-09 07:43 17.68575 -86.21912 29456 ft 327 kts 11°
2026-05-09 07:43 17.70883 -86.21999 27763 ft 350 kts 336°
2026-05-09 07:43 17.72880 -86.23590 25828 ft 383 kts 304°
2026-05-09 07:43 17.73840 -86.26295 23571 ft 419 kts 272°
2026-05-09 07:44 17.73298 -86.29383 20336 ft 452 kts 241°
2026-05-09 07:44 17.71106 -86.31819 16415 ft 480 kts 205°
2026-05-09 07:44 17.67827 -86.32378 11839 ft 490 kts 169°
2026-05-09 07:44 17.64907 -86.30721 6430 ft 496 kts 132°
2026-05-09 07:45 17.63665 -86.27614 166 ft 433 kts 95°
2026-05-09 07:45 17.63520 -86.26263 -3 ft 114 kts 98°
2026-05-09 07:45 17.63469 -86.25895 -4 ft 0 kts 98°